Location: *
(43.6428°N, 11.5461°E)
Time: 10:54:43
(UTC+00:00)

STARLINK-52 - Visible Passes

Search period start: 21 January 2020 00:00
Search period end: 31 January 2020 00:00
Orbit: 442 x 445 km, 53.0° (Epoch: 20 January)

Date Brightness Start Highest point End Pass type
(mag) Time Alt. Az. Time Alt. Az. Time Alt. Az.
21 Jan 6.1 04:09:31 12° NE 04:09:31 12° NE 04:10:02 10° NE visible
21 Jan 4.9 05:42:59 11° NW 05:45:40 23° NNE 05:48:34 10° ENE visible
22 Jan 5.0 05:04:49 18° NNW 05:05:52 21° NNE 05:08:36 10° ENE visible
23 Jan 5.4 04:26:40 18° NNE 04:26:40 18° NNE 04:28:38 10° ENE visible
23 Jan 3.9 06:00:28 10° NW 06:03:53 48° NNE 06:07:17 10° ESE visible
24 Jan 6.4 03:48:32 11° NE 03:48:32 11° NE 03:48:42 10° NE visible
24 Jan 4.2 05:21:59 18° NW 05:24:09 37° NNE 05:27:26 10° E visible
25 Jan 4.5 04:43:54 29° N 04:44:23 30° NNE 04:47:31 10° E visible
26 Jan 5.6 04:05:50 21° NE 04:05:50 21° NE 04:07:35 10° ENE visible
26 Jan 3.2 05:39:18 15° WNW 05:42:05 73° SW 05:45:35 10° SE visible
27 Jan 3.1 05:01:18 41° NW 05:02:25 80° NE 05:05:55 10° ESE visible
28 Jan 4.1 04:23:22 48° ENE 04:23:22 48° ENE 04:26:10 10° ESE visible
28 Jan 4.9 05:57:02 10° W 05:59:39 20° SW 06:02:15 10° S visible
29 Jan 6.2 03:45:30 16° E 03:45:30 16° E 03:46:21 10° ESE visible
29 Jan 4.3 05:18:59 23° WSW 05:20:04 28° SW 05:23:06 10° SSE visible
30 Jan 4.2 04:41:13 34° S 04:41:13 34° S 04:43:45 10° SSE visible
